Lapse_Rate
5.9 6.2 6.7 7.3 7.5 7.6 7.9 7.8 7.7 7.6 7.4 7.4 7.1 6.9 6.7 6.9 7.1 6.9 6.5 6.3 6.2 5.9 5.5 5.2 5.3 5.1 5.2 5.0 5.0 4.8 4.4 3.1 3.1 3.1 3.8 4.4 4.3 4.3 4.3 3.7 4.0 3.9 3.6
6.9 7.5 7.7 8.0 8.1 7.9 8.0 8.0 7.7 7.6 7.5 7.4 7.3 6.9 6.8 6.9 6.8 7.0 6.9 6.6 6.2 5.8 5.5 4.7 4.7 4.9 5.0 5.1 4.9 4.8 3.9 3.1 2.5 2.8 2.9 3.6 3.0 3.5 3.6 2.8 3.1 3.2 3.6
7.5 7.6 7.7 7.8 7.9 8.1 8.1 8.1 7.9 7.9 7.8 7.5 7.4 7.5 7.1 6.9 6.3 6.5 6.4 6.4 5.9 5.5 5.1 4.8 4.0 3.9 4.2 4.3 3.9 3.8 3.3 2.5 2.6 2.8 2.9 2.8 2.8 2.7 3.2 3.5 3.4 3.0 3.3
7.8 7.8 7.9 7.9 8.0 8.0 8.1 8.2 8.2 7.9 7.9 7.4 7.2 7.2 6.9 7.0 6.8 6.0 6.2 6.0 5.4 5.1 4.8 4.5 4.1 3.9 3.6 3.6 3.2 3.3 2.8 2.9 3.6 3.9 3.4 3.4 3.7 3.9 3.6 3.3 3.1 3.2 3.3
8.1 7.9 7.7 7.9 8.0 7.9 8.0 8.1 8.2 8.2 8.2 7.8 7.2 7.2 7.0 7.1 6.8 6.5 6.4 6.0 5.6 5.5 4.8 4.2 3.7 3.5 3.4 3.0 2.9 3.2 3.4 3.4 3.8 3.7 3.9 4.1 4.1 3.7 3.5 3.4 3.5 3.4 3.4
8.2 7.9 7.8 7.7 7.6 7.9 8.0 8.1 8.2 8.3 8.1 7.9 7.7 7.5 7.3 6.8 6.7 6.4 6.2 6.3 5.9 5.5 5.2 4.8 4.4 4.1 3.8 3.7 3.8 3.7 3.5 3.6 3.7 3.9 4.1 4.0 3.8 3.8 3.7 3.8 3.7 3.8 4.1
8.4 8.4 8.3 8.1 7.9 7.9 8.0 8.0 8.0 8.1 8.2 8.1 7.8 7.7 7.3 6.7 6.5 6.4 6.3 6.2 6.1 5.8 5.6 5.5 5.2 4.7 4.3 4.2 3.9 3.8 3.7 3.8 3.7 3.7 3.8 3.9 4.0 4.0 3.9 4.0 4.0 4.1 3.8
8.5 8.5 8.4 8.1 8.1 8.3 8.5 8.5 8.4 8.3 8.3 8.3 8.0 7.6 7.3 6.9 6.5 6.5 6.2 6.4 6.3 6.3 6.0 5.6 5.7 5.5 5.2 4.9 4.6 4.4 4.2 3.9 3.8 4.1 4.2 4.1 4.0 4.0 4.1 4.0 3.9 4.0 4.4
7.9 8.1 8.0 8.0 8.0 8.3 8.3 8.3 8.5 8.5 8.4 8.5 8.4 8.1 7.5 7.1 6.8 6.6 6.3 6.3 6.4 6.4 5.9 5.7 5.8 5.9 5.8 5.3 5.1 5.0 4.9 4.7 4.6 4.5 4.3 4.2 4.0 4.1 4.2 4.1 4.2 4.3 4.4
7.7 7.5 7.5 7.7 7.7 7.9 8.1 8.1 8.3 8.5 8.4 8.5 8.4 8.2 8.0 7.3 6.9 6.6 6.6 6.7 6.5 6.6 6.3 5.9 5.7 5.6 5.4 5.3 5.3 5.2 5.2 5.1 5.0 5.0 4.6 4.5 4.4 4.4 4.5 4.7 4.7 4.6 4.4
7.6 7.8 7.6 7.8 7.9 8.0 8.1 8.1 8.0 8.0 8.1 8.1 8.2 8.3 8.0 7.6 7.3 7.0 6.8 6.6 6.8 6.7 6.5 6.3 6.2 6.0 5.8 5.5 5.3 5.2 5.1 4.9 4.9 4.9 4.8 4.7 4.6 4.7 4.6 4.8 4.7 4.5 4.4
7.3 7.7 7.6 7.7 7.9 8.0 8.1 8.3 8.3 8.0 7.9 7.9 7.9 8.1 8.1 7.8 7.5 7.3 7.2 7.0 7.0 6.7 6.6 6.6 6.4 6.2 6.3 6.0 5.8 5.5 5.3 5.2 5.0 4.9 4.8 4.9 4.9 4.9 5.0 4.8 4.6 4.5 4.5
7.0 7.4 7.8 8.0 7.9 7.8 7.8 7.9 8.0 8.1 8.1 8.0 7.8 7.8 7.9 7.9 7.8 7.6 7.4 7.2 7.2 7.1 6.8 6.7 6.5 6.3 6.4 6.5 6.3 5.9 5.7 5.6 5.2 5.1 5.2 5.2 5.1 5.1 4.9 4.8 4.8 4.7 4.7
7.2 7.4 7.6 7.8 7.7 7.7 7.9 7.9 7.9 7.8 8.0 8.0 8.0 8.0 7.8 7.9 7.9 8.0 8.1 7.5 6.7 6.8 6.9 6.9 6.7 6.6 6.8 6.7 6.5 6.3 6.1 5.8 5.6 5.5 5.4 5.4 5.3 5.1 5.0 4.9 4.8 4.9 5.0
7.4 7.5 7.5 7.4 7.5 7.7 7.8 8.0 7.8 7.8 7.9 8.0 8.0 7.8 7.8 7.9 8.0 8.1 8.1 7.4 7.1 6.9 7.0 7.1 6.8 6.7 7.0 7.0 6.7 6.4 6.2 5.8 5.8 5.6 5.4 5.4 5.4 5.3 5.1 5.2 5.2 5.3 5.6
7.6 7.5 7.5 7.5 7.4 7.6 7.8 7.8 7.8 7.8 7.9 7.9 7.9 7.8 7.9 7.9 7.9 8.1 7.6 7.5 7.3 7.2 7.1 7.1 6.9 7.0 6.9 6.7 6.4 6.2 6.0 5.8 5.7 5.6 5.4 5.3 5.6 5.6 5.4 5.4 5.7 5.7 5.7
7.5 7.5 7.5 7.4 7.5 7.5 7.6 7.7 7.6 7.7 7.8 7.8 7.8 7.9 8.0 7.9 7.5 7.6 7.6 7.7 7.3 7.0 7.0 7.1 6.9 6.8 6.5 6.5 6.2 5.8 5.7 5.6 5.6 5.4 5.3 5.3 5.2 5.5 5.6 5.7 5.8 5.9 6.0
7.5 7.5 7.5 7.5 7.5 7.4 7.4 7.3 7.3 6.9 6.9 7.2 7.4 7.6 7.5 7.5 7.4 7.4 7.5 7.4 7.3 7.1 6.9 6.8 6.7 6.3 6.2 6.2 6.1 6.1 6.0 5.7 5.7 5.4 5.4 5.6 5.7 5.8 5.9 6.1 6.2 6.2 6.3
7.5 7.5 7.6 7.6 7.4 7.2 7.1 6.9 6.5 6.3 6.3 6.5 6.7 6.8 7.0 7.3 7.3 7.3 7.5 7.4 7.4 7.3 6.8 6.4 6.2 6.2 6.2 6.0 6.0 6.0 5.8 5.9 5.9 5.8 6.0 6.0 6.0 6.2 6.3 6.4 6.4 6.5 6.5
7.4 7.4 7.4 7.5 7.3 7.1 7.0 6.7 6.3 6.1 6.1 6.2 6.3 6.4 6.5 6.4 6.6 6.7 6.7 6.4 6.2 6.2 6.2 6.2 6.1 6.0 5.9 5.9 5.9 6.0 5.8 6.0 6.1 6.2 6.2 6.3 6.3 6.4 6.4 6.4 6.6 6.6 6.5
7.4 7.4 7.3 7.3 7.2 7.1 7.0 6.7 6.4 6.2 6.1 6.0 6.0 6.1 6.2 5.9 5.7 5.7 5.7 5.8 5.7 5.7 5.9 5.9 5.9 5.9 5.9 5.9 5.9 6.1 6.2 6.3 6.3 6.5 6.6 6.6 6.5 6.5 6.6 6.6 6.4 6.2 6.0
7.2 7.2 7.3 7.2 7.2 7.1 7.0 6.8 6.6 6.4 6.3 6.1 5.9 5.8 5.7 5.6 5.6 5.7 5.8 5.8 5.8 5.8 5.9 5.9 5.9 6.0 6.1 6.3 6.4 6.6 6.7 6.7 6.7 6.7 6.6 6.6 6.5 6.3 6.1 6.0 6.0 5.9 5.9
7.2 7.2 7.2 7.2 7.0 7.0 6.8 6.8 6.6 6.5 6.4 6.2 6.1 6.0 6.1 6.0 5.9 5.9 5.9 5.9 6.0 6.0 6.2 6.3 6.5 6.5 6.6 6.7 6.7 6.7 6.7 6.7 6.6 6.4 6.3 6.1 6.1 6.1 6.1 6.0 6.0 5.9 5.9
7.1 7.0 6.9 6.9 6.7 6.7 6.7 6.7 6.6 6.5 6.4 6.4 6.3 6.2 6.1 6.0 6.0 5.9 6.0 6.0 6.1 6.2 6.3 6.4 6.5 6.6 6.7 6.7 6.7 6.6 6.6 6.4 6.2 6.2 6.2 6.1 6.2 6.1 6.0 6.0 5.9 6.0 6.1
7.0 6.8 6.7 6.6 6.6 6.5 6.6 6.6 6.5 6.5 6.4 6.3 6.3 6.3 6.2 6.1 6.0 6.0 6.0 6.1 6.2 6.3 6.4 6.5 6.6 6.6 6.6 6.6 6.6 6.5 6.3 6.2 6.2 6.2 6.1 6.2 6.2 6.1 6.1 6.0 6.0 6.0 5.9
6.8 6.8 6.7 6.6 6.6 6.6 6.6 6.6 6.6 6.5 6.4 6.4 6.3 6.3 6.3 6.2 6.1 6.0 6.0 6.2 6.3 6.5 6.5 6.6 6.6 6.6 6.7 6.6 6.5 6.4 6.4 6.3 6.2 6.2 6.2 6.2 6.2 6.1 6.0 6.1 6.0 5.9 5.7
Wind_Speed
10 10 10 9 10 10 10 11 11 10 10 9 8 9 9 8 10 10 9 9 13 15 16 18 20 18 14 13 10 11 8 9 12 11 9 14 16 16 22 22 22 21 20
9 9 8 7 8 9 11 11 12 12 11 12 10 8 10 7 5 8 8 8 12 12 14 13 15 10 15 13 10 11 9 8 12 16 9 12 14 13 16 15 18 19 20
11 11 10 10 9 9 10 11 11 12 12 12 11 10 8 8 6 7 7 7 8 10 13 15 15 16 14 11 13 12 9 9 10 8 8 9 10 11 14 11 11 16 17
13 14 14 13 12 10 11 10 10 10 10 11 11 10 9 6 7 7 7 6 5 5 8 13 15 16 15 14 12 12 9 8 9 10 8 10 9 12 10 11 10 9 10
14 13 14 14 14 14 12 10 10 9 9 9 10 8 9 7 6 8 7 6 6 5 3 6 9 11 15 13 10 10 12 9 9 8 7 6 5 9 12 9 9 8 9
15 15 15 14 15 15 14 13 12 12 11 10 10 10 8 6 8 10 8 7 7 8 6 4 5 12 12 14 14 13 12 11 9 7 5 10 10 11 9 10 9 10 7
18 18 17 16 14 15 15 14 13 13 12 12 10 10 11 8 9 12 11 7 7 7 8 7 6 4 10 9 13 12 10 12 10 9 11 10 9 10 11 12 12 11 8
19 18 19 16 16 15 14 14 13 11 12 11 10 9 10 6 10 12 11 6 5 5 9 10 10 9 10 11 10 9 8 8 8 7 10 10 11 14 14 12 12 11 7
17 17 16 15 15 15 15 13 11 10 11 10 9 9 7 4 11 12 11 7 8 8 6 8 10 9 16 18 12 12 11 9 13 16 14 15 16 15 16 10 10 11 7
18 16 15 14 14 13 11 9 9 9 11 9 8 7 6 4 10 15 11 6 7 6 5 8 16 14 19 18 14 13 12 11 13 14 11 13 17 15 10 11 8 9 6
17 16 15 12 11 10 9 7 7 7 8 9 9 5 4 5 7 16 16 9 8 7 7 7 6 19 18 18 16 12 14 13 14 12 11 9 9 9 7 9 6 4 7
15 12 10 11 9 8 9 5 6 8 8 8 8 6 3 3 9 14 16 13 14 10 8 7 11 21 19 16 11 21 20 13 9 9 9 8 8 7 7 10 10 11 9
10 8 11 12 10 9 8 6 5 6 7 6 5 5 4 4 5 12 14 16 13 9 7 12 20 21 20 14 22 21 13 9 8 8 9 8 8 8 12 11 13 13 13
10 11 10 9 7 8 6 5 5 5 5 6 6 6 4 4 5 6 6 8 15 10 16 14 13 14 12 14 13 10 7 8 9 9 9 9 9 9 8 7 7 6 6
10 7 7 7 5 4 5 5 5 5 6 5 6 6 6 6 7 13 13 10 10 14 15 11 10 9 10 10 8 9 8 8 8 8 9 9 9 8 8 7 6 5 4
11 5 5 4 4 3 3 4 6 6 8 10 10 7 4 5 14 16 17 16 19 23 12 12 10 10 10 10 10 9 9 9 8 8 8 8 8 8 7 7 5 5 5
10 6 3 3 2 3 4 4 5 2 2 5 7 9 9 9 17 20 21 24 25 18 10 10 10 10 10 10 10 9 9 8 9 8 8 8 8 7 8 6 6 6 5
5 3 3 3 2 3 3 3 3 3 2 1 1 3 9 16 20 21 24 23 12 9 10 10 10 10 10 10 10 9 9 9 8 8 8 7 7 7 7 7 6 6 6
2 2 2 2 2 2 2 1 1 0 1 2 3 3 9 18 19 22 22 10 9 9 9 9 9 9 9 9 8 8 9 9 9 8 8 7 7 7 6 6 6 5 5
3 2 2 2 2 2 1 1 1 2 3 3 5 8 9 12 11 10 7 7 7 8 8 9 9 9 9 9 8 8 9 9 9 8 8 7 6 6 7 6 5 6 7
4 2 3 3 3 2 2 2 2 3 4 5 6 7 10 8 8 8 7 7 8 8 9 9 9 8 8 8 9 9 9 9 8 7 6 6 6 6 5 5 5 7 7
4 4 3 3 3 3 3 3 4 4 6 6 8 8 10 7 7 7 8 8 7 8 7 8 8 8 8 9 9 8 8 8 7 7 6 5 5 6 6 6 7 7 7
5 5 4 4 4 4 4 5 5 5 6 7 7 8 6 6 7 7 8 8 8 7 7 7 8 8 7 9 11 8 7 7 7 7 7 7 7 6 6 6 6 6 6
6 5 5 4 5 5 5 6 6 7 7 7 7 7 6 7 7 8 8 8 8 8 7 7 8 10 8 11 11 11 11 11 11 10 9 6 5 4 5 5 5 7 7
6 5 5 5 6 6 5 6 7 7 7 7 7 7 7 7 8 8 8 8 8 8 9 7 11 14 15 15 14 14 12 14 12 11 8 5 3 3 4 4 6 7 8
6 6 6 5 6 6 6 7 7 8 8 8 8 8 8 8 9 9 9 9 9 9 10 8 13 15 16 15 15 16 16 15 12 10 7 5 3 3 4 6 7 7 8
Wind_Direction
309 301 282 265 263 265 269 274 279 283 280 284 288 288 283 280 279 262 244 225 213 206 204 202 197 189 188 177 178 179 180 177 166 154 179 163 178 178 164 185 164 172 175
305 306 302 297 291 283 277 274 274 274 280 285 281 274 281 265 255 267 251 229 221 208 196 196 196 180 185 180 172 169 168 144 144 150 150 160 176 177 160 178 169 181 176
323 317 313 314 310 306 303 295 286 278 282 286 279 261 257 265 256 247 240 229 224 205 197 186 179 176 173 168 163 161 141 134 139 138 141 164 170 175 165 166 170 183 156
321 321 318 320 320 310 302 298 297 293 290 285 277 265 252 242 237 231 229 223 208 215 209 192 183 180 177 168 165 163 146 137 138 144 148 154 167 173 167 160 168 163 149
312 311 309 314 315 316 310 303 298 297 292 290 287 263 253 244 229 223 188 193 177 149 173 203 177 185 174 176 170 160 158 151 143 140 142 151 158 160 164 159 158 158 166
300 297 300 301 301 305 308 302 302 302 295 288 282 274 262 239 228 210 185 181 167 156 147 118 134 147 144 139 137 143 149 142 152 147 154 167 165 162 155 160 154 164 167
295 293 291 287 288 294 298 300 300 300 297 288 282 273 268 252 208 211 194 162 174 164 148 129 105 119 129 128 119 111 118 142 145 152 159 169 158 163 152 165 170 172 185
288 288 288 280 282 292 296 293 292 290 288 286 282 277 272 249 192 194 175 163 139 155 157 147 138 137 125 124 126 123 118 119 129 142 154 150 159 170 175 170 165 171 137
290 294 284 287 289 288 287 288 291 292 282 281 283 280 265 240 191 178 164 168 152 151 144 144 135 128 139 139 130 123 109 97 105 112 101 113 129 140 153 160 157 154 153
283 288 297 295 286 282 287 287 280 279 282 279 276 275 252 216 196 177 156 147 142 133 120 139 140 143 146 142 138 133 121 120 112 104 100 93 97 98 125 158 162 173 158
289 291 291 287 280 278 282 274 269 270 271 275 273 260 240 192 189 180 164 158 151 143 143 137 141 140 145 143 140 139 130 127 118 115 114 114 114 116 109 120 127 169 162
290 291 278 281 276 277 272 253 248 264 269 266 263 262 206 193 190 189 174 156 157 148 152 141 141 139 138 132 124 122 124 122 120 122 127 133 135 129 120 107 89 85 73
295 279 275 279 270 262 259 251 258 256 254 254 241 247 226 174 179 179 171 144 141 135 140 138 135 130 121 105 126 128 134 127 130 139 140 140 138 124 120 118 109 110 103
284 271 277 273 267 262 247 247 243 241 249 247 236 229 204 172 160 154 152 142 128 128 125 127 128 127 119 121 128 133 126 139 145 143 144 138 131 144 145 151 150 150 150
272 263 262 264 248 249 233 251 254 250 243 240 228 215 193 190 187 170 161 158 149 140 134 128 130 127 131 133 139 135 132 140 146 145 147 148 151 154 154 163 160 167 188
285 267 259 246 232 242 263 265 238 277 272 260 248 210 211 202 165 161 153 147 143 140 141 140 139 141 142 143 147 149 148 155 150 149 154 156 153 156 159 176 171 189 206
283 290 265 260 260 263 253 265 280 161 333 288 253 218 191 169 160 152 146 141 143 139 140 138 143 144 143 149 152 153 150 153 151 149 155 157 160 168 171 177 190 203 218
279 287 295 294 276 266 272 276 272 275 261 120 160 179 176 160 152 148 145 139 146 142 138 143 143 142 146 151 151 150 150 147 154 154 157 163 171 175 186 197 201 214 229
308 307 299 286 281 271 242 245 280 243 83 85 106 111 138 137 137 140 144 145 141 133 134 138 139 143 149 150 148 147 154 161 158 162 167 177 182 193 200 210 223 236 254
286 287 278 274 239 209 170 164 167 131 116 111 114 118 119 126 134 138 131 130 128 128 133 136 140 148 149 149 148 152 160 166 167 173 179 185 184 209 214 214 233 253 236
295 278 279 248 239 201 162 157 157 140 129 124 115 118 130 132 131 129 128 128 130 134 138 142 145 146 148 148 156 164 165 172 175 183 173 179 189 209 226 242 244 251 256
270 267 243 235 224 204 171 160 158 145 134 133 128 118 113 123 129 129 131 131 133 136 139 144 147 151 155 161 163 163 166 169 170 174 178 184 193 219 232 233 247 254 262
265 253 245 228 220 185 180 166 161 153 145 140 140 141 136 135 135 134 131 130 133 134 138 139 141 146 145 150 156 162 166 171 171 180 183 192 205 226 223 247 248 252 263
265 248 237 223 207 204 190 174 173 162 154 151 153 153 146 142 139 139 141 139 138 137 140 138 145 149 149 149 159 163 167 161 168 177 190 198 211 196 249 244 259 269 274
268 249 236 221 211 204 187 183 178 170 164 161 159 159 154 152 148 151 149 147 143 145 143 144 151 151 157 159 159 161 146 153 163 160 167 168 188 212 233 257 268 277 275
272 249 236 222 212 204 195 187 183 178 170 172 169 168 164 161 158 156 155 154 155 155 155 153 151 151 153 154 157 147 147 143 141 142 147 161 186 218 239 248 257 269 273